OBJECT BF, 61788

Orbit data source: Space-Track

You're viewing an Uncataloged Satellite

Recently launched and/or uncataloged satellites may have evolving metadata. Metadata may include but not limited to: Owner, Maufacturer, Bus, Motor, and Mission.

OBJECT BF, 61788 is a satellite in SSO that was launched on Mon, 04 Nov 2024 UTC via a SOYUZ-2-1B launch vehicle from the Vostochny Cosmodrome (VOSTO). Unknown objects in Earth's orbit typically refer to objects detected orbiting the Earth but have not yet been identified or cataloged. These objects could be anything from previously untracked satellites, spent rocket stages, debris from satellite collisions, or even natural meteoroids temporarily captured by Earth's gravity.

Loading next visibility...
Identifier
61788, 2024-199BF
Orbit
SSO
Country
Flag of TBDTBD
Related business
Manufacturer
Sputniks
Mission
Operational Commercial Communications
Bus & Motor
CUBESAT 3U?, Unknown motor
Mass
3 kg wet, 3 kg dry
Launch date (UTC)
2024-11-04 (2 years ago)
Launch vehicle
SOYUZ-2-1B
Launch site
Vostochny Cosmodrome (VOSTO)
Object type
Unknown
Shape & HBR
Box, 0.1 m
Radar Cross Section
0.035 m², Medium (>0.1 m² and < 1m²)

Expand to show TLE details & history
Last TLE update: 10 hours ago

TLE from 10 hours ago
0 OBJECT BF
1 61788U 24199BF  26171.44445589  .00044271  00000-0  57941-3 0  9992
2 61788  97.2885  47.3368 0004263 262.9100  97.1671 15.58481865134917
Epoch: 2026-06-20T10:40Z
TLE epoch observation values (Epoch: 2026-06-20T10:40:00.988Z)
Latitude
-0.0001°
Longitude
-21.32629°
Altitude
395.557 km
Speed
7.673 km/s
True Right ascension
03h 09m 20s
True Declination
0° 00' 00"
Sunlit
Object was in daylight at epoch
Visualization orbit readout
Latitude
Unknown
Longitude
Unknown
Altitude
Unknown
Speed
Unknown
Apparent Right ascension
Unknown
Apparent Declination
Unknown
Sunlit
N/A
Visualization observer readout
Local Sidereal Time
07:23:29
Azimuth
Unknown
Elevation
Unknown
Doppler factor
Unknown
Orbital elements
Apogee altitude
391.845 km
Perigee altitude
386.075 km
Semi-major axis
6,767.097 km
Eccentricity
0.00043
Inclination
97.2885°
RAAN
47.3368°
Arg. of periapsis
262.91°
True anomaly
97.21557°
Mean anomaly
97.1671°
Eccentric anomaly
97.19133°
Mean motion
3.89888 °/min
Orbital period
92.33 mins
BSTAR
0.00057941
Loading maneuver chart data...
Computing Atmospheric mass density...
Loading historical data...
Loading historical data...
Loading historical data...
Loading historical data...
Loading historical data...
Loading historical data...
Loading historical data...

Documentation

Showing up to 5 results
|